Location: Schommer Observatory
(40.5200°N, 74.4500°W)
Time: 04:22:47
(UTC-04:00)

Tiangong 1 - Pass Details

Date: 13 October 2017
Orbit: 292 x 320 km, 42.8° (Epoch: 22 October)

Event Time Altitude Azimuth Distance (km) Brightness Sun altitude
Rises 19:53:53 0° 285° (WNW) 2,040 6.3 -18.6°
Reaches altitude 10° 19:55:53 10° 282° (WNW) 1,204 4.8 -18.9°
Enters shadow 19:58:06 50° 251° (WSW) 402 1.5 -19.4°
